Location: Champs
(48.8539°N, 2.6040°E)
Time: 06:16:31
(UTC+00:00)

ISS - Pass Details

Date: 26 October 2021
Orbit: 417 x 422 km, 51.6° (Epoch: 04 December)

Event Time Altitude Azimuth Distance (km) Brightness Sun altitude
Exits shadow 05:06:12 21° 237° (WSW) 991 -2.3 -13.9°
Maximum altitude 05:08:16 72° 155° (SSE) 444 -3.6 -13.5°
Drops below altitude 10° 05:11:38 10° 71° (ENE) 1,501 0.2 -13.0°
Sets 05:13:44 0° 70° (ENE) 2,366 1.3 -12.6°
